Regional Weather Roundup
Issued by NWS

Home | Current Version | Previous Version | Graphics & Text | Print | Product List | Glossary On
Versions: 1 2 3 4 5 6 7 8 9 10 11 12 13 14 15 16 17 18 19 20 21 22 23 24 25 26 27 28 29 30 31 32 33 34 35 36 37 38 39 40 41 42 43 44 45 46 47 48 49 50
000
ASUS45 KCYS 231710
RWRWY

WYOMING REGIONAL WEATHER ROUNDUP
NATIONAL WEATHER SERVICE CHEYENNE WY
1100 AM MDT WED JUL 23 2014

NOTE:  "FAIR" INDICATES FEW OR NO CLOUDS BELOW 12,000 FEET
WITH NO SIGNIFICANT WEATHER AND/OR OBSTRUCTIONS TO VISIBILITY.

WYZ001-231800-
YELLOWSTONE NATIONAL PARK

CITY           SKY/WX    TMP DP  RH WIND       PRES   REMARKS
LK YELLOWSTONE   N/A     74  34  23 VRB6      30.43S
W YELLOWSTONE  NOT AVBL

$$
WYZ002>013-054>058-071-098>099-231800-
NORTHERN WYOMING

CITY           SKY/WX    TMP DP  RH WIND       PRES   REMARKS
JACKSON        SUNNY     70  45  40 S3        30.33F
CODY           SUNNY    N/A N/A N/A SE10      30.19F
GREYBULL       SUNNY     82  52  35 VRB6      30.14F
WORLAND        SUNNY     82  50  32 NW6       30.16F
SHERIDAN       MOSUNNY   80  60  50 E9        30.16F
BUFFALO        MOSUNNY   81  59  47 SE12      30.22S
GILLETTE       MOSUNNY   79  62  56 S17G28    30.22F
HULETT         FAIR      79  59  50 MISG      30.27
NEWCASTLE      FAIR      79  54  41 MISG      30.28

$$
WYZ014>020-022>026-101>103-231800-
CENTRAL WYOMING

CITY           SKY/WX    TMP DP  RH WIND       PRES   REMARKS
BIG PINEY      SUNNY     77  33  20 VRB5      30.38F
PINEDALE       SUNNY     79  36  21 E5        30.39F
DUBOIS         FAIR      72  39  30 NE5       30.38F
LANDER         SUNNY     79  50  36 VRB5      30.27F
RIVERTON       SUNNY     77  49  37 CALM      30.27F
CASPER         SUNNY     78  57  48 E6        30.26F
DOUGLAS        SUNNY     76  62  62 SE23G33   30.27F

$$
WYZ021-027>030-104>119-231800-
SOUTHERN WYOMING

CITY           SKY/WX    TMP DP  RH WIND       PRES   REMARKS
EVANSTON       PTSUNNY   81  36  19 SW13      30.39S
KEMMERER       SUNNY     82  27  13 SW5       30.40S
ROCK SPRINGS   SUNNY     84  23  10 CALM      30.36F
DIXON          FAIR      89  34  14 SW13      30.40S
RAWLINS        SUNNY     88  30  12 SW7       30.37F
SARATOGA       FAIR      86  41  20 E10       30.42F
LARAMIE        SUNNY     80  51  36 S15       30.43F
CHEYENNE       PTSUNNY   71  60  68 S14G26    30.41F
TORRINGTON     CLOUDY    73  63  70 S15       30.31F
PINE BLUFFS    CLOUDY    72  63  73 SE10      30.38F

$$


USA.gov is the U.S. government's official web portal to all federal, state and local government web resources and services.